Americus, GA

11:49 PM EDT on March 22, 2017 (GMT -0400)
Souther

Weather History for KACJ - April, 2014

Change the Weather History Date:

Sunday, April 27, 2014

  Actual Average (KABY) Record (KABY)
Temperature  
Mean Temperature 72 °F -  
Max Temperature 86 °F 78 °F 93 °F (2011)
Min Temperature 57 °F 55 °F 40 °F (1983)
Cooling Degree Days 6    
Growing Degree Days 22 (Base 50)    
Moisture  
Dew Point 62 °F    
Average Humidity 75    
Maximum Humidity 100    
Minimum Humidity 40    
Precipitation  
Precipitation 0.00 in - - ()
Sea Level Pressure  
Sea Level Pressure 29.98 in    
Wind  
Wind Speed 3 mph (South)    
Max Wind Speed 13 mph    
Max Gust Speed 17 mph    
Visibility 9 miles    
Events Rain    
Averages and records for this station are not official NWS values.
T = Trace of Precipitation, MM = Missing Value Source: NWS Daily Summary

Daily Weather History Graph

Daily Weather History Graph

Search for Another Location

Airport or City:

Trip Planner

Search our weather history database for the weather conditions in past years. The results will help you decide how hot, cold, wet, or windy it might be!

Date:

Astronomy

Apr. 27, 2014 Rise Set
Actual Time 6:54 AM EDT 8:14 PM EDT
Civil Twilight 6:28 AM EDT 8:40 PM EDT
Nautical Twilight 5:58 AM EDT 9:11 PM EDT
Astronomical Twilight 5:26 AM EDT 9:43 PM EDT
Moon 5:47 AM EDT (4/27) 6:52 PM EDT (4/27)
Length of Visible Light 14h 11m
Length of Day
13h 20m
Waning Crescent, 3% of the Moon is Illuminated
Apr 27
Waning Crescent
Apr 29
New
May 6
First Quarter
May 14
Full
May 21
Last Quarter

Hourly Weather History & Observations

Time (EDT) Temp. Heat Index Dew Point Humidity Pressure Visibility Wind Dir Wind Speed Gust Speed Precip Events Conditions
12:10 AM 62.6 °F - 60.8 °F 94% 30.01 in 10.0 mi Calm Calm - N/A   Clear
12:30 AM 62.6 °F - 60.8 °F 94% 30.00 in 10.0 mi Calm Calm - N/A   Clear
12:50 AM 62.6 °F - 60.8 °F 94% 30.00 in 10.0 mi Calm Calm - N/A   Clear
1:10 AM 60.8 °F - 60.8 °F 100% 30.00 in 10.0 mi Calm Calm - N/A   Clear
1:30 AM 60.8 °F - 60.8 °F 100% 30.00 in 10.0 mi South 3.5 mph - N/A   Clear
1:50 AM 64.4 °F - 57.2 °F 77% 30.00 in 10.0 mi Calm Calm - N/A   Clear
2:10 AM 62.6 °F - 59.0 °F 88% 29.99 in 10.0 mi Calm Calm - N/A   Clear
2:30 AM 64.4 °F - 59.0 °F 83% 29.99 in 10.0 mi Calm Calm - N/A   Clear
2:50 AM 64.4 °F - 59.0 °F 83% 29.98 in 10.0 mi WSW 3.5 mph - N/A   Clear
3:10 AM 62.6 °F - 59.0 °F 88% 29.98 in 10.0 mi Calm Calm - N/A   Clear
3:30 AM 62.6 °F - 59.0 °F 88% 29.98 in 10.0 mi Calm Calm - N/A   Clear
3:50 AM 62.6 °F - 59.0 °F 88% 29.98 in 10.0 mi Calm Calm - N/A   Clear
4:10 AM 60.8 °F - 60.8 °F 100% 29.98 in 10.0 mi Calm Calm - N/A   Clear
4:30 AM 60.8 °F - 59.0 °F 94% 29.98 in 10.0 mi Calm Calm - N/A   Clear
4:50 AM 60.8 °F - 60.8 °F 100% 29.98 in 7.0 mi Calm Calm - N/A   Clear
5:10 AM 59.0 °F - 59.0 °F 100% 29.97 in 7.0 mi Calm Calm - N/A   Clear
5:30 AM 59.0 °F - 59.0 °F 100% 29.97 in 7.0 mi Calm Calm - N/A   Clear
5:50 AM 60.8 °F - 59.0 °F 94% 29.98 in 10.0 mi Calm Calm - N/A   Clear
6:10 AM 59.0 °F - 59.0 °F 100% 29.99 in 7.0 mi Calm Calm - N/A   Clear
6:30 AM 57.2 °F - 57.2 °F 100% 29.99 in 7.0 mi Calm Calm - N/A   Clear
6:50 AM 57.2 °F - 57.2 °F 100% 30.00 in 5.0 mi NNE 3.5 mph - N/A   Clear
7:10 AM 57.2 °F - 57.2 °F 100% 30.01 in 5.0 mi NE 3.5 mph - N/A   Clear
7:30 AM 59.0 °F - 59.0 °F 100% 30.01 in 5.0 mi Calm Calm - N/A   Clear
7:50 AM 60.8 °F - 60.8 °F 100% 30.03 in 5.0 mi Calm Calm - N/A   Clear
8:10 AM 62.6 °F - 60.8 °F 94% 30.03 in 7.0 mi Calm Calm - N/A   Clear
8:50 AM 66.2 °F - 62.6 °F 88% 30.05 in 7.0 mi SSE 8.1 mph - N/A   Clear
9:10 AM 68.0 °F - 64.4 °F 88% 30.04 in 10.0 mi SSE 4.6 mph - N/A   Clear
9:30 AM 69.8 °F - 64.4 °F 83% 30.03 in 10.0 mi SE 4.6 mph - N/A   Clear
9:50 AM 69.8 °F - 66.2 °F 88% 30.04 in 10.0 mi SSE 6.9 mph - N/A   Clear
10:10 AM 71.6 °F - 66.2 °F 83% 30.04 in 10.0 mi South 4.6 mph - N/A   Clear
10:30 AM 73.4 °F - 66.2 °F 78% 30.04 in 10.0 mi SE 4.6 mph - N/A   Clear
10:50 AM 73.4 °F - 66.2 °F 78% 30.04 in 10.0 mi South 4.6 mph - N/A   Clear
11:10 AM 75.2 °F - 64.4 °F 69% 30.03 in 10.0 mi SSE 4.6 mph - N/A   Clear
11:30 AM 77.0 °F - 66.2 °F 69% 30.03 in 10.0 mi SSE 4.6 mph - N/A   Clear
11:50 AM 77.0 °F - 66.2 °F 69% 30.03 in 10.0 mi SSE 3.5 mph - N/A   Scattered Clouds
12:10 PM 78.8 °F - 66.2 °F 65% 30.02 in 10.0 mi SSW 6.9 mph - N/A   Scattered Clouds
12:30 PM 78.8 °F - 64.4 °F 61% 30.01 in 10.0 mi SSE 11.5 mph - N/A   Scattered Clouds
12:50 PM 80.6 °F 81.8 °F 62.6 °F 54% 30.00 in 10.0 mi SSE 12.7 mph 17.3 mph N/A   Scattered Clouds
1:10 PM 80.6 °F 81.8 °F 62.6 °F 54% 30.00 in 10.0 mi South 9.2 mph - N/A   Scattered Clouds
1:30 PM 80.6 °F 81.8 °F 62.6 °F 54% 30.00 in 10.0 mi South 8.1 mph 17.3 mph N/A   Scattered Clouds
1:50 PM 82.4 °F 82.9 °F 60.8 °F 48% 29.99 in 10.0 mi South 10.4 mph - N/A   Scattered Clouds
2:10 PM 80.6 °F 81.8 °F 62.6 °F 54% 29.99 in 10.0 mi South 9.2 mph - N/A   Scattered Clouds
2:30 PM 80.6 °F 81.8 °F 62.6 °F 54% 29.98 in 10.0 mi SSE 8.1 mph - N/A   Scattered Clouds
2:50 PM 80.6 °F 81.8 °F 62.6 °F 54% 29.98 in 10.0 mi South 8.1 mph - N/A   Scattered Clouds
3:10 PM 80.6 °F 81.8 °F 62.6 °F 54% 29.97 in 10.0 mi South 6.9 mph - N/A   Scattered Clouds
3:30 PM 82.4 °F 83.4 °F 62.6 °F 51% 29.96 in 10.0 mi South 6.9 mph - N/A Rain Light Rain
3:50 PM 82.4 °F 82.5 °F 59.0 °F 45% 29.96 in 10.0 mi South 11.5 mph - N/A   Scattered Clouds
4:10 PM 86.0 °F 85.4 °F 59.0 °F 40% 29.95 in 10.0 mi SSW 10.4 mph - N/A   Clear
4:30 PM 82.4 °F 82.0 °F 57.2 °F 42% 29.95 in 10.0 mi South 8.1 mph - N/A   Scattered Clouds
4:50 PM 82.4 °F 82.5 °F 59.0 °F 45% 29.94 in 10.0 mi South 8.1 mph - N/A   Scattered Clouds
5:10 PM 82.4 °F 82.9 °F 60.8 °F 48% 29.94 in 10.0 mi SSW 8.1 mph - N/A   Clear
5:30 PM 82.4 °F 82.5 °F 59.0 °F 45% 29.93 in 10.0 mi South 6.9 mph - N/A   Clear
5:50 PM 80.6 °F 81.5 °F 60.8 °F 51% 29.93 in 10.0 mi SSW 9.2 mph - N/A   Clear
6:10 PM 80.6 °F 81.8 °F 62.6 °F 54% 29.94 in 10.0 mi SW 8.1 mph - N/A   Clear
6:50 PM 78.8 °F - 60.8 °F 54% 29.95 in 10.0 mi SSW 8.1 mph - N/A   Clear
7:10 PM 78.8 °F - 60.8 °F 54% 29.95 in 10.0 mi SSW 5.8 mph - N/A   Clear
7:30 PM 78.8 °F - 60.8 °F 54% 29.95 in 10.0 mi South 4.6 mph - N/A   Clear
7:50 PM 77.0 °F - 60.8 °F 57% 29.94 in 10.0 mi South 3.5 mph - N/A   Clear
8:10 PM 77.0 °F - 62.6 °F 61% 29.94 in 10.0 mi Calm Calm - N/A   Clear
8:50 PM 73.4 °F - 64.4 °F 73% 29.94 in 10.0 mi Calm Calm - N/A   Clear
9:10 PM 71.6 °F - 64.4 °F 78% 29.95 in 10.0 mi Calm Calm - N/A   Clear
9:30 PM 71.6 °F - 64.4 °F 78% 29.96 in 10.0 mi Calm Calm - N/A   Clear
9:50 PM 71.6 °F - 64.4 °F 78% 29.96 in 10.0 mi South 3.5 mph - N/A   Scattered Clouds
10:10 PM 71.6 °F - 64.4 °F 78% 29.95 in 10.0 mi SSE 6.9 mph - N/A   Scattered Clouds
10:30 PM 73.4 °F - 64.4 °F 73% 29.95 in 10.0 mi South 5.8 mph - N/A   Clear
10:50 PM 71.6 °F - 62.6 °F 73% 29.95 in 10.0 mi South 5.8 mph - N/A   Clear
11:10 PM 71.6 °F - 62.6 °F 73% 29.95 in 10.0 mi South 5.8 mph - N/A   Clear
11:30 PM 71.6 °F - 62.6 °F 73% 29.95 in 10.0 mi South 4.6 mph - N/A   Clear
11:50 PM 71.6 °F - 62.6 °F 73% 29.96 in 10.0 mi Calm Calm - N/A   Clear